{"data":{"norad_id":69002,"intl_designator":"2026-100Y","name":"CAS500-2 RIDESHARE OBJE*","alt_names":[],"object_type":"PAYLOAD","status":"ACTIVE","operator":null,"country":"TBD","launch_date":"2026-05-03","launch_site_code":"AFWTR","launch_vehicle":null,"mission":null,"orbit_class":"UNKNOWN","rcs_meters":null,"size_class":null,"mass_kg":null,"dimensions":null,"purposes":[],"wikipedia_slug":null,"has_3d_model":false,"image_url":null,"decayed_at":null,"tle_current":{"epoch":"2026-05-25T01:18:41.556096Z","epoch_age_seconds":73376,"freshness":"FRESH","line1":"1 69002U 26100Y   26145.05464764  .00001949  00000+0  19518-3 0  9999","line2":"2 69002  97.7378  42.9663 0003470  72.4186 287.7412 14.92524713  3240","mean_motion":14.92524713,"eccentricity":0.000347,"inclination_deg":97.7378,"raan_deg":42.9663,"arg_perigee_deg":72.4186,"mean_anomaly_deg":287.7412,"bstar":0.00019518,"rev_number":324,"period_min":96.480814519016,"perigee_km":587.64845965467,"apogee_km":592.48439283248,"semimajor_km":6968.2034262436,"source":"CELESTRAK","updated_at":"2026-05-25T13:38:09.036327Z"}}}